Hourly Data Report for January 31, 2020

SATURNA ISLAND CS
BRITISH COLUMBIA
Current Station Operator: ECCC - MSC

48°47'02.067" N
123°02'41.082" W
24.40 m
1017101
71473
WEZ

Download Data

Hourly Data (January 2020)
Hourly Data Report for January 31, 2020
TIME
LST
Temp Definition
°C
Dew Point Definition
°C
Rel Hum Definition
%
Precip. Amount Definition
mm

Wind Dir Definition
10's deg

Wind Spd Definition
km/h
Visibility Definition
km
Stn Press Definition
kPa
Hmdx Definition


Wind Chill Definition


Weather Definition


00:00 8.9 7.6 92 0.0 17 31   101.33     LegendNANA
01:00 9.1 7.8 92 0.0 18 32   101.34     LegendNANA
02:00 9.5 8.2 92 0.0 18 33   101.38     LegendNANA
03:00 9.6 8.6 94 0.2 18 30   101.37     LegendNANA
04:00 9.3 8.6 95 0.4 18 28   101.30     LegendNANA
05:00 9.4 8.8 96 1.2 19 24   101.30     LegendNANA
06:00 9.4 8.8 96 2.0 20 19   101.30     LegendNANA
07:00 9.3 8.8 97 2.0 19 21   101.25     LegendNANA
08:00 9.8 9.2 97 3.0 21 9   101.25     LegendNANA
09:00 9.8 9.1 96 2.0 15 21   101.02     LegendNANA
10:00 9.7 9.1 96 2.8 18 24   100.93     LegendNANA
11:00 9.9 9.2 95 3.6 19 34   100.93     LegendNANA
12:00 9.6 9.0 96 1.8 22 15   100.93     LegendNANA
13:00 11.1 9.4 89 0.0 15 44   100.79     LegendNANA
14:00 10.7 9.2 91 0.0 16 39   100.81     LegendNANA
15:00 11.4 10.1 92 0.2 17 34   100.71     LegendNANA
16:00 11.5 10.1 91 0.2 20 31   100.70     LegendNANA
17:00 11.6 9.8 89 0.6 19 35   100.62     LegendNANA
18:00 11.5 9.4 87 0.0 15 47   100.42     LegendNANA
19:00 10.6 9.6 94 2.2 19 33   100.57     LegendNANA
20:00 10.4 9.6 95 5.4 19 31   100.60     LegendNANA
21:00 10.1 9.5 96 3.2 19 34   100.55     LegendNANA
22:00 9.7 9.1 96 2.2 20 31   100.58     LegendNANA
23:00 9.7 9.1 96 2.8 21 27   100.55     LegendNANA

Notes on Data Quality.

Legend

  • E = Estimated
  • M = Missing
  • NA = Not Available*
  • [empty] = Indicates an unobserved value
Date modified: